JAL2505 RJBB-RJCC

Flight info

Callsign JAL2505
Flight time 1h 24m
Altitude 35000
Route NANKO NIKEX KYOTO SIGAK GUJYO Y13 SIRAO Y139 NAVER
Aircraft B738/M-SDE2E3FGHIRWXY/LB1

Departure

Time 2026-05-04 06:30
Airport Kansai International Airport (RJBB)

Arrival

Time 2026-05-04 07:54
Airport New Chitose Airport (RJCC)
Time Latitude Longitude Altitude Speed Heading
2026-05-04 05:51 34.43194 135.23996 22 ft 0 kts 147°
2026-05-04 06:17 34.43205 135.23987 30 ft 2 kts 148°
2026-05-04 06:17 34.43219 135.23976 26 ft 2 kts 148°
2026-05-04 06:17 34.43233 135.23966 24 ft 2 kts 150°
2026-05-04 06:18 34.43248 135.23957 25 ft 2 kts 157°
2026-05-04 06:18 34.43264 135.23954 26 ft 2 kts 225°
2026-05-04 06:18 34.43267 135.23958 26 ft 0 kts 232°
2026-05-04 06:20 34.43193 135.23753 22 ft 12 kts 285°
2026-05-04 06:20 34.43196 135.23708 22 ft 2 kts 237°
2026-05-04 06:21 34.43066 135.23528 22 ft 12 kts 229°
2026-05-04 06:21 34.43009 135.23445 22 ft 14 kts 233°
2026-05-04 06:22 34.42981 135.23343 23 ft 13 kts 299°
2026-05-04 06:22 34.43051 135.23263 22 ft 15 kts 320°
2026-05-04 06:25 34.44207 135.22972 22 ft 15 kts 50°
2026-05-04 06:25 34.44270 135.23064 22 ft 14 kts 50°
2026-05-04 06:26 34.44330 135.23155 23 ft 14 kts 53°
2026-05-04 06:26 34.44387 135.23243 23 ft 13 kts 50°
2026-05-04 06:26 34.44446 135.23327 23 ft 13 kts 50°
2026-05-04 06:26 34.44501 135.23411 25 ft 13 kts 51°
2026-05-04 06:27 34.44721 135.23737 23 ft 12 kts 51°
2026-05-04 06:28 34.44776 135.23819 23 ft 13 kts 51°
2026-05-04 06:28 34.44833 135.23903 23 ft 13 kts 51°
2026-05-04 06:28 34.44888 135.23986 23 ft 13 kts 53°
2026-05-04 06:28 34.44944 135.24070 22 ft 13 kts 42°
2026-05-04 06:29 34.45025 135.24077 23 ft 13 kts 327°
2026-05-04 06:29 34.45085 135.24001 28 ft 12 kts 308°
2026-05-04 06:29 34.45075 135.23925 27 ft 0 kts 235°
2026-05-04 06:30 34.44966 135.23754 27 ft 71 kts 232°
2026-05-04 06:30 34.44472 135.23013 26 ft 155 kts 234°
2026-05-04 06:30 34.43647 135.21882 548 ft 194 kts 234°
2026-05-04 06:30 34.42694 135.20600 1312 ft 215 kts 240°
2026-05-04 06:31 34.42365 135.18764 1674 ft 250 kts 284°
2026-05-04 06:31 34.43428 135.16922 2191 ft 295 kts 320°
2026-05-04 06:31 34.45483 135.15757 1922 ft 359 kts 348°
2026-05-04 06:31 34.47886 135.15986 2363 ft 343 kts 13°
2026-05-04 06:32 34.49886 135.17479 2568 ft 339 kts 42°
2026-05-04 06:33 34.58697 135.32414 3860 ft 285 kts 42°
2026-05-04 06:34 34.60051 135.34214 4527 ft 292 kts 42°
2026-05-04 06:34 34.61441 135.36043 5166 ft 292 kts 40°
2026-05-04 06:34 34.62897 135.37766 5808 ft 293 kts 38°
2026-05-04 06:34 34.64422 135.39494 6469 ft 307 kts 38°
2026-05-04 06:35 34.66023 135.41300 7085 ft 320 kts 38°
2026-05-04 06:36 34.78744 135.55980 11556 ft 399 kts 44°
2026-05-04 06:37 34.80247 135.58895 12131 ft 416 kts 68°
2026-05-04 06:37 34.80981 135.62338 12736 ft 425 kts 80°
2026-05-04 06:37 34.81549 135.65919 13361 ft 434 kts 81°
2026-05-04 06:37 34.82143 135.69557 13930 ft 443 kts 80°
2026-05-04 06:38 34.82782 135.73255 14543 ft 448 kts 80°
2026-05-04 06:38 34.83441 135.76935 15169 ft 453 kts 79°
2026-05-04 06:40 34.88951 136.04334 18758 ft 498 kts 60°
2026-05-04 06:40 34.90977 136.07736 19231 ft 495 kts 42°
2026-05-04 06:40 34.93465 136.10618 19751 ft 494 kts 36°
2026-05-04 06:40 34.96064 136.13376 20229 ft 494 kts 35°
2026-05-04 06:41 34.98698 136.16118 20615 ft 501 kts 35°
2026-05-04 06:41 35.01359 136.18932 20897 ft 511 kts 36°
2026-05-04 06:41 35.04044 136.21826 21247 ft 518 kts 37°
2026-05-04 06:41 35.06741 136.24778 21607 ft 524 kts 37°
2026-05-04 06:42 35.09439 136.27756 21819 ft 531 kts 37°
2026-05-04 06:42 35.12171 136.30790 22353 ft 531 kts 37°
2026-05-04 06:42 35.14910 136.33824 22857 ft 531 kts 38°
2026-05-04 06:44 35.34159 136.55281 26105 ft 537 kts 37°
2026-05-04 06:44 35.36945 136.58323 26525 ft 537 kts 34°
2026-05-04 06:44 35.39848 136.61198 26956 ft 535 kts 31°
2026-05-04 06:45 35.42813 136.63940 27393 ft 534 kts 30°
2026-05-04 06:45 35.45814 136.66635 27846 ft 534 kts 29°
2026-05-04 06:45 35.48817 136.69320 28295 ft 535 kts 29°
2026-05-04 06:45 35.50811 136.71110 28656 ft 535 kts 29°
2026-05-04 06:46 35.54779 136.74730 29259 ft 537 kts 31°
2026-05-04 06:46 35.57735 136.77564 29779 ft 537 kts 31°
2026-05-04 06:46 35.60691 136.80347 30208 ft 536 kts 30°
2026-05-04 06:46 35.63650 136.83142 30594 ft 535 kts 30°
2026-05-04 06:48 35.83114 137.01211 33538 ft 519 kts 32°
2026-05-04 06:48 35.85974 137.03919 33957 ft 516 kts 31°
2026-05-04 06:49 35.88828 137.06590 34373 ft 512 kts 31°
2026-05-04 06:50 36.09404 137.25909 34832 ft 558 kts 32°
2026-05-04 06:51 36.15601 137.31816 34872 ft 572 kts 31°
2026-05-04 06:51 36.21994 137.37873 34820 ft 585 kts 31°
2026-05-04 06:52 36.28504 137.44068 34789 ft 594 kts 31°
2026-05-04 06:52 36.35071 137.50325 34795 ft 596 kts 31°
2026-05-04 06:53 36.41648 137.56616 34764 ft 597 kts 31°
2026-05-04 06:53 36.48158 137.62900 34772 ft 588 kts 32°
2026-05-04 06:54 36.54643 137.69067 34773 ft 588 kts 32°
2026-05-04 06:54 36.61326 137.74789 34751 ft 578 kts 24°
2026-05-04 06:55 36.68176 137.79806 34784 ft 571 kts 21°
2026-05-04 06:55 36.75036 137.84920 34750 ft 575 kts 26°
2026-05-04 06:57 37.02290 138.06382 34789 ft 576 kts 25°
2026-05-04 06:58 37.08968 138.12114 34462 ft 589 kts 32°
2026-05-04 06:58 37.12295 138.15027 34602 ft 579 kts 25°
2026-05-04 06:58 37.15720 138.17635 34706 ft 574 kts 22°
2026-05-04 06:59 37.22632 138.22618 34738 ft 573 kts 23°
2026-05-04 06:59 37.29480 138.27781 34782 ft 575 kts 25°
2026-05-04 07:01 37.56756 138.49544 34746 ft 585 kts 26°
2026-05-04 07:02 37.63641 138.55052 34743 ft 588 kts 26°
2026-05-04 07:02 37.70569 138.60609 34738 ft 589 kts 26°
2026-05-04 07:03 37.77486 138.66172 34725 ft 589 kts 26°
2026-05-04 07:03 37.84359 138.71712 34729 ft 589 kts 26°
2026-05-04 07:04 37.91265 138.77293 34735 ft 590 kts 26°
2026-05-04 07:04 37.98201 138.82905 34729 ft 590 kts 26°
2026-05-04 07:05 38.05127 138.88526 34720 ft 590 kts 26°
2026-05-04 07:05 38.12040 138.94148 34713 ft 590 kts 26°
2026-05-04 07:06 38.22389 139.02579 34719 ft 591 kts 26°
2026-05-04 07:07 38.29314 139.08236 34716 ft 592 kts 26°
2026-05-04 07:09 38.57065 139.31046 34694 ft 595 kts 26°
2026-05-04 07:09 38.64031 139.36807 34681 ft 596 kts 26°
2026-05-04 07:10 38.71003 139.42586 34674 ft 596 kts 26°
2026-05-04 07:12 38.98903 139.65847 34657 ft 599 kts 27°
2026-05-04 07:12 39.06028 139.71133 34693 ft 586 kts 14°
2026-05-04 07:13 39.13544 139.75117 34645 ft 583 kts 12°
2026-05-04 07:13 39.21088 139.79003 34644 ft 584 kts 12°
2026-05-04 07:14 39.39833 139.89100 34625 ft 586 kts 13°
2026-05-04 07:15 39.47354 139.93193 34603 ft 584 kts 13°
2026-05-04 07:15 39.54741 139.97218 34574 ft 577 kts 13°
2026-05-04 07:16 39.62137 140.01246 34588 ft 576 kts 13°
2026-05-04 07:16 39.69527 140.05282 34592 ft 576 kts 13°
2026-05-04 07:17 39.76884 140.09500 34581 ft 580 kts 17°
2026-05-04 07:17 39.84174 140.14080 34675 ft 582 kts 18°
2026-05-04 07:18 39.91445 140.18689 34598 ft 586 kts 17°
2026-05-04 07:18 39.98813 140.23286 34597 ft 587 kts 17°
2026-05-04 07:19 40.06204 140.27876 34560 ft 589 kts 18°
2026-05-04 07:19 40.13612 140.32486 34595 ft 590 kts 17°
2026-05-04 07:20 40.20992 140.37096 34523 ft 591 kts 17°
2026-05-04 07:20 40.28404 140.41746 34500 ft 589 kts 18°
2026-05-04 07:22 40.57833 140.60276 34509 ft 584 kts 18°
2026-05-04 07:23 40.61491 140.62601 34384 ft 584 kts 19°
2026-05-04 07:23 40.65141 140.64927 34408 ft 582 kts 19°
2026-05-04 07:23 40.68790 140.67250 34551 ft 581 kts 18°
2026-05-04 07:23 40.72438 140.69568 34511 ft 582 kts 18°
2026-05-04 07:24 40.79861 140.73657 34465 ft 573 kts 10°
2026-05-04 07:24 40.87331 140.77115 34475 ft 572 kts 11°
2026-05-04 07:26 41.16271 140.91523 34432 ft 509 kts 10°
2026-05-04 07:27 41.22874 140.94785 34510 ft 511 kts 10°
2026-05-04 07:27 41.26243 140.96393 34402 ft 518 kts 10°
2026-05-04 07:27 41.29599 140.98060 33910 ft 524 kts 11°
2026-05-04 07:28 41.33027 140.99883 33040 ft 539 kts 12°
2026-05-04 07:28 41.36571 141.01733 31886 ft 550 kts
2026-05-04 07:28 41.40219 141.03352 31196 ft 556 kts
2026-05-04 07:28 41.43949 141.05036 30648 ft 576 kts 11°
2026-05-04 07:29 41.47758 141.06933 30122 ft 588 kts 13°
2026-05-04 07:29 41.51584 141.08914 29565 ft 589 kts 13°
2026-05-04 07:29 41.55413 141.10862 28896 ft 588 kts 13°
2026-05-04 07:29 41.59195 141.12749 28231 ft 585 kts 13°
2026-05-04 07:30 41.62997 141.14626 27502 ft 582 kts 13°
2026-05-04 07:30 41.66783 141.16496 26863 ft 578 kts 13°
2026-05-04 07:30 41.70546 141.18369 26235 ft 573 kts 14°
2026-05-04 07:30 41.74276 141.20247 25625 ft 568 kts 14°
2026-05-04 07:31 41.77949 141.22107 25105 ft 560 kts 15°
2026-05-04 07:31 41.81579 141.23947 24509 ft 553 kts 15°
2026-05-04 07:33 42.03877 141.40739 20141 ft 513 kts 44°
2026-05-04 07:33 42.06393 141.44093 19538 ft 506 kts 44°
2026-05-04 07:33 42.08892 141.47361 18942 ft 495 kts 43°
2026-05-04 07:33 42.11330 141.50501 18314 ft 476 kts 42°
2026-05-04 07:34 42.13706 141.53483 17729 ft 458 kts 39°
2026-05-04 07:34 42.16154 141.56110 17048 ft 442 kts 34°
2026-05-04 07:34 42.18602 141.58507 16384 ft 428 kts 33°
2026-05-04 07:34 42.20196 141.60032 15952 ft 421 kts 32°
2026-05-04 07:35 42.23302 141.63027 15248 ft 404 kts 33°
2026-05-04 07:35 42.24791 141.64487 14913 ft 396 kts 33°
2026-05-04 07:35 42.26980 141.66660 14420 ft 386 kts 33°
2026-05-04 07:35 42.29107 141.68792 13920 ft 376 kts 34°
2026-05-04 07:36 42.31181 141.70882 13438 ft 368 kts 34°
2026-05-04 07:36 42.33212 141.72932 12930 ft 360 kts 34°
2026-05-04 07:38 42.45907 141.85790 13025 ft 318 kts 33°
2026-05-04 07:38 42.47670 141.87584 13027 ft 314 kts 33°
2026-05-04 07:38 42.49387 141.89333 13007 ft 304 kts 33°
2026-05-04 07:38 42.51050 141.91028 13014 ft 295 kts 33°
2026-05-04 07:39 42.52682 141.92689 12977 ft 293 kts 33°
2026-05-04 07:39 42.54326 141.94334 12759 ft 292 kts 28°
2026-05-04 07:39 42.56179 141.95234 12374 ft 280 kts 357°
2026-05-04 07:39 42.58079 141.95100 12109 ft 269 kts 343°
2026-05-04 07:40 42.59932 141.94690 12076 ft 271 kts 342°
2026-05-04 07:40 42.61773 141.94261 12030 ft 270 kts 342°
2026-05-04 07:40 42.63618 141.93838 12027 ft 268 kts 342°
2026-05-04 07:40 42.65465 141.93419 12023 ft 269 kts 342°
2026-05-04 07:41 42.67312 141.93006 12025 ft 269 kts 342°
2026-05-04 07:41 42.69168 141.92596 12029 ft 270 kts 342°
2026-05-04 07:41 42.71031 141.92186 12042 ft 271 kts 343°
2026-05-04 07:41 42.72894 141.91779 12043 ft 271 kts 343°
2026-05-04 07:42 42.74765 141.91371 12034 ft 271 kts 343°
2026-05-04 07:42 42.76629 141.90966 12036 ft 271 kts 343°
2026-05-04 07:42 42.78467 141.90564 12028 ft 270 kts 343°
2026-05-04 07:42 42.80321 141.90157 12040 ft 269 kts 342°
2026-05-04 07:43 42.82179 141.89751 12033 ft 269 kts 342°
2026-05-04 07:43 42.84010 141.89352 11997 ft 263 kts 342°
2026-05-04 07:43 42.85797 141.88964 11825 ft 258 kts 342°
2026-05-04 07:43 42.87559 141.88576 11471 ft 260 kts 342°
2026-05-04 07:44 42.89350 141.88182 11196 ft 260 kts 342°
2026-05-04 07:44 42.91130 141.87791 10996 ft 258 kts 343°
2026-05-04 07:44 42.92933 141.87392 10382 ft 268 kts 343°
2026-05-04 07:44 42.94844 141.86964 9401 ft 288 kts 344°
2026-05-04 07:45 42.96883 141.86511 8289 ft 306 kts 345°
2026-05-04 07:45 42.99036 141.86039 7150 ft 319 kts 345°
2026-05-04 07:45 43.01204 141.85570 6486 ft 307 kts 346°
2026-05-04 07:45 43.03257 141.85120 5972 ft 291 kts 342°
2026-05-04 07:46 43.05040 141.84097 5438 ft 266 kts 316°
2026-05-04 07:46 43.06161 141.82265 5099 ft 238 kts 292°
2026-05-04 07:46 43.06661 141.80277 5022 ft 208 kts 275°
2026-05-04 07:46 43.06695 141.78429 5019 ft 187 kts 262°
2026-05-04 07:47 43.06468 141.76672 4979 ft 188 kts 252°
2026-05-04 07:47 43.05912 141.75049 4714 ft 188 kts 234°
2026-05-04 07:47 43.05118 141.73672 4498 ft 185 kts 232°
2026-05-04 07:49 42.99607 141.65461 3072 ft 163 kts 199°
2026-05-04 07:49 42.98453 141.65386 3033 ft 170 kts 178°
2026-05-04 07:49 42.97291 141.65573 3029 ft 168 kts 178°
2026-05-04 07:50 42.96143 141.65761 3012 ft 161 kts 178°
2026-05-04 07:50 42.95050 141.65950 3000 ft 156 kts 177°
2026-05-04 07:50 42.93952 141.66138 3024 ft 163 kts 180°
2026-05-04 07:50 42.92776 141.66342 2878 ft 176 kts 178°
2026-05-04 07:51 42.91594 141.66556 2646 ft 167 kts 178°
2026-05-04 07:51 42.90475 141.66756 2442 ft 161 kts 178°
2026-05-04 07:51 42.89356 141.66952 2212 ft 164 kts 176°
2026-05-04 07:51 42.88219 141.67154 1994 ft 165 kts 177°
2026-05-04 07:52 42.87093 141.67353 1771 ft 162 kts 176°
2026-05-04 07:52 42.85988 141.67548 1555 ft 158 kts 176°
2026-05-04 07:52 42.84919 141.67737 1342 ft 153 kts 175°
2026-05-04 07:52 42.83859 141.67924 1134 ft 152 kts 175°
2026-05-04 07:53 42.82798 141.68111 924 ft 157 kts 175°
2026-05-04 07:54 42.76888 141.69143 67 ft 14 kts 188°
2026-05-04 07:55 42.76802 141.69104 65 ft 13 kts 204°
2026-05-04 07:55 42.76722 141.69052 66 ft 13 kts 208°
2026-05-04 07:55 42.76727 141.68967 63 ft 12 kts 339°
2026-05-04 07:55 42.76810 141.68939 67 ft 12 kts 352°
2026-05-04 07:56 42.76892 141.68928 69 ft 12 kts 355°
2026-05-04 07:56 42.76972 141.68916 71 ft 11 kts 351°
2026-05-04 07:56 42.77049 141.68897 67 ft 11 kts 349°
2026-05-04 07:56 42.77124 141.68881 75 ft 11 kts 351°
2026-05-04 07:57 42.77198 141.68868 72 ft 11 kts 353°
2026-05-04 07:57 42.77269 141.68857 73 ft 10 kts 353°
2026-05-04 07:57 42.77339 141.68846 74 ft 10 kts 353°
2026-05-04 07:57 42.77406 141.68835 71 ft 10 kts 353°
2026-05-04 07:58 42.77472 141.68825 73 ft 9 kts 353°
2026-05-04 07:58 42.77537 141.68814 71 ft 9 kts 353°
2026-05-04 07:58 42.77599 141.68804 76 ft 9 kts 353°
2026-05-04 07:58 42.77660 141.68795 81 ft 9 kts 353°
2026-05-04 07:59 42.77718 141.68784 82 ft 8 kts 351°
2026-05-04 07:59 42.77775 141.68772 82 ft 8 kts 351°
2026-05-04 07:59 42.77831 141.68761 83 ft 8 kts 353°
2026-05-04 07:59 42.77884 141.68752 83 ft 8 kts 353°
2026-05-04 08:00 42.77937 141.68744 85 ft 7 kts 353°
2026-05-04 08:00 42.77986 141.68736 84 ft 7 kts 353°
2026-05-04 08:00 42.78035 141.68727 86 ft 7 kts 352°
2026-05-04 08:02 42.78893 141.68424 89 ft 16 kts 268°
2026-05-04 08:02 42.78970 141.68314 87 ft 18 kts 326°
2026-05-04 08:02 42.79063 141.68199 87 ft 19 kts 302°
2026-05-04 08:03 42.79051 141.68079 85 ft 7 kts 212°
2026-05-04 08:03 42.79014 141.68052 87 ft 0 kts 207°
2026-05-04 08:03 42.79011 141.68050 87 ft 0 kts 211°
2026-05-04 08:04 42.79009 141.68048 85 ft 0 kts 210°